VLG12CF LEAM-LEBL

Flight info

Callsign VLG12CF
Flight time 0h 59m
Altitude 32000
Route DOSEK N860 VLC L34 CASIM N608 MATEX
Aircraft A320/M-SDE3FGHIRWY/LB1

Departure

Time 2026-05-06 15:26
Airport Almería Airport (LEAM)

Arrival

Time 2026-05-06 16:25
Airport Josep Tarradellas Barcelona-El Prat Airport (LEBL)
Time Latitude Longitude Altitude Speed Heading
2026-05-06 15:12 36.84693 -2.37071 70 ft 0 kts 141°
2026-05-06 15:21 36.84684 -2.37062 69 ft 3 kts 141°
2026-05-06 15:21 36.84665 -2.37042 59 ft 4 kts 138°
2026-05-06 15:22 36.84649 -2.37006 68 ft 6 kts 98°
2026-05-06 15:22 36.84640 -2.36942 61 ft 8 kts 103°
2026-05-06 15:22 36.84624 -2.36877 58 ft 7 kts 110°
2026-05-06 15:22 36.84618 -2.36814 65 ft 7 kts 90°
2026-05-06 15:23 36.84630 -2.36760 60 ft 7 kts 73°
2026-05-06 15:23 36.84649 -2.36682 64 ft 12 kts 72°
2026-05-06 15:23 36.84680 -2.36561 66 ft 18 kts 72°
2026-05-06 15:23 36.84719 -2.36400 56 ft 21 kts 72°
2026-05-06 15:24 36.84765 -2.36213 63 ft 24 kts 73°
2026-05-06 15:24 36.84816 -2.36003 63 ft 27 kts 73°
2026-05-06 15:24 36.84874 -2.35768 59 ft 29 kts 73°
2026-05-06 15:24 36.84925 -2.35559 64 ft 21 kts 73°
2026-05-06 15:25 36.84945 -2.35382 65 ft 20 kts 99°
2026-05-06 15:25 36.84839 -2.35311 62 ft 18 kts 184°
2026-05-06 15:25 36.84773 -2.35477 60 ft 43 kts 255°
2026-05-06 15:25 36.84614 -2.36114 61 ft 108 kts 253°
2026-05-06 15:26 36.84342 -2.37218 63 ft 156 kts 253°
2026-05-06 15:26 36.83987 -2.38596 443 ft 169 kts 247°
2026-05-06 15:26 36.83593 -2.39981 1110 ft 169 kts 245°
2026-05-06 15:26 36.82950 -2.41195 1743 ft 170 kts 219°
2026-05-06 15:27 36.81951 -2.41959 2341 ft 169 kts 195°
2026-05-06 15:27 36.80768 -2.42129 2852 ft 176 kts 171°
2026-05-06 15:27 36.79526 -2.41656 3136 ft 200 kts 149°
2026-05-06 15:27 36.78475 -2.40550 3922 ft 190 kts 126°
2026-05-06 15:28 36.77902 -2.39156 4815 ft 181 kts 105°
2026-05-06 15:28 36.77765 -2.37480 4995 ft 210 kts 83°
2026-05-06 15:28 36.78176 -2.35738 5686 ft 206 kts 61°
2026-05-06 15:28 36.78992 -2.34325 6478 ft 202 kts 41°
2026-05-06 15:29 36.80148 -2.33242 6893 ft 215 kts 31°
2026-05-06 15:29 36.81473 -2.32247 7312 ft 230 kts 28°
2026-05-06 15:29 36.82909 -2.31216 7745 ft 247 kts 28°
2026-05-06 15:29 36.84449 -2.30095 8172 ft 266 kts 28°
2026-05-06 15:30 36.86091 -2.28868 8618 ft 284 kts 30°
2026-05-06 15:30 36.87834 -2.27536 9061 ft 302 kts 30°
2026-05-06 15:30 36.89673 -2.26111 9509 ft 320 kts 30°
2026-05-06 15:30 36.91635 -2.24575 9948 ft 336 kts 30°
2026-05-06 15:31 36.93660 -2.22981 10361 ft 351 kts 30°
2026-05-06 15:31 36.95737 -2.21340 10772 ft 364 kts 30°
2026-05-06 15:31 36.97943 -2.19595 11201 ft 377 kts 31°
2026-05-06 15:32 37.02512 -2.15984 12056 ft 399 kts 31°
2026-05-06 15:32 37.04885 -2.14107 12494 ft 408 kts 31°
2026-05-06 15:32 37.07308 -2.12188 12930 ft 416 kts 31°
2026-05-06 15:32 37.09775 -2.10238 13383 ft 423 kts 31°
2026-05-06 15:33 37.12277 -2.08256 13824 ft 429 kts 31°
2026-05-06 15:33 37.14814 -2.06241 14227 ft 434 kts 31°
2026-05-06 15:33 37.17380 -2.04201 14633 ft 440 kts 31°
2026-05-06 15:33 37.19978 -2.02135 15049 ft 444 kts 31°
2026-05-06 15:34 37.22598 -2.00052 15472 ft 448 kts 31°
2026-05-06 15:34 37.25276 -1.98037 15889 ft 450 kts 26°
2026-05-06 15:34 37.28071 -1.96248 16328 ft 453 kts 25°
2026-05-06 15:34 37.30884 -1.94450 16763 ft 455 kts 25°
2026-05-06 15:35 37.33719 -1.92638 17210 ft 458 kts 25°
2026-05-06 15:35 37.36562 -1.90818 17657 ft 461 kts 25°
2026-05-06 15:35 37.39428 -1.88978 18113 ft 463 kts 25°
2026-05-06 15:35 37.42296 -1.87135 18525 ft 465 kts 25°
2026-05-06 15:36 37.45182 -1.85279 18922 ft 466 kts 25°
2026-05-06 15:36 37.48071 -1.83420 19318 ft 468 kts 25°
2026-05-06 15:36 37.51014 -1.81524 19734 ft 469 kts 25°
2026-05-06 15:36 37.53890 -1.79674 20159 ft 471 kts 24°
2026-05-06 15:37 37.56849 -1.77771 20586 ft 472 kts 24°
2026-05-06 15:37 37.59773 -1.75887 21015 ft 473 kts 24°
2026-05-06 15:37 37.62698 -1.73992 21452 ft 473 kts 24°
2026-05-06 15:37 37.65632 -1.72086 21897 ft 474 kts 24°
2026-05-06 15:38 37.68568 -1.70180 22347 ft 475 kts 24°
2026-05-06 15:38 37.71512 -1.68270 22808 ft 476 kts 24°
2026-05-06 15:38 37.74459 -1.66357 23269 ft 477 kts 24°
2026-05-06 15:38 37.77418 -1.64437 23690 ft 478 kts 24°
2026-05-06 15:39 37.80375 -1.62521 24088 ft 479 kts 24°
2026-05-06 15:39 37.83344 -1.60596 24490 ft 479 kts 24°
2026-05-06 15:39 37.86310 -1.58669 24900 ft 480 kts 24°
2026-05-06 15:39 37.89285 -1.56730 25305 ft 481 kts 23°
2026-05-06 15:40 37.92255 -1.54787 25718 ft 481 kts 24°
2026-05-06 15:40 37.95220 -1.52825 26143 ft 481 kts 24°
2026-05-06 15:40 37.98188 -1.50844 26572 ft 481 kts 24°
2026-05-06 15:40 38.01144 -1.48866 27005 ft 481 kts 24°
2026-05-06 15:41 38.04107 -1.46881 27448 ft 481 kts 24°
2026-05-06 15:41 38.07063 -1.44902 27900 ft 480 kts 24°
2026-05-06 15:41 38.10021 -1.42922 28357 ft 480 kts 24°
2026-05-06 15:41 38.12970 -1.40947 28821 ft 479 kts 24°
2026-05-06 15:42 38.15919 -1.38972 29290 ft 479 kts 23°
2026-05-06 15:42 38.18858 -1.37005 29773 ft 477 kts 23°
2026-05-06 15:42 38.20844 -1.35678 30075 ft 477 kts 23°
2026-05-06 15:42 38.23773 -1.33717 30496 ft 475 kts 23°
2026-05-06 15:43 38.26698 -1.31755 30921 ft 474 kts 23°
2026-05-06 15:43 38.29608 -1.29799 31351 ft 473 kts 23°
2026-05-06 15:43 38.32512 -1.27845 31763 ft 472 kts 22°
2026-05-06 15:43 38.35436 -1.25883 31900 ft 478 kts 22°
2026-05-06 15:44 38.41430 -1.21860 31929 ft 495 kts 23°
2026-05-06 15:44 38.47617 -1.17688 31937 ft 510 kts 23°
2026-05-06 15:45 38.53954 -1.13390 31936 ft 519 kts 23°
2026-05-06 15:45 38.60341 -1.09043 31935 ft 520 kts 23°
2026-05-06 15:46 38.66727 -1.04704 31938 ft 520 kts 23°
2026-05-06 15:46 38.73119 -1.00351 31938 ft 520 kts 23°
2026-05-06 15:47 38.79501 -0.95998 31939 ft 519 kts 23°
2026-05-06 15:47 38.85880 -0.91642 31938 ft 519 kts 24°
2026-05-06 15:48 38.92252 -0.87278 31937 ft 519 kts 24°
2026-05-06 15:48 38.98618 -0.82907 31938 ft 518 kts 24°
2026-05-06 15:49 39.04979 -0.78535 31940 ft 518 kts 24°
2026-05-06 15:49 39.11336 -0.74157 31931 ft 518 kts 24°
2026-05-06 15:50 39.17731 -0.69733 31931 ft 518 kts 24°
2026-05-06 15:50 39.24088 -0.65329 31923 ft 518 kts 24°
2026-05-06 15:51 39.30439 -0.60928 31937 ft 519 kts 24°
2026-05-06 15:51 39.36802 -0.56506 31943 ft 519 kts 24°
2026-05-06 15:52 39.43162 -0.52078 31949 ft 519 kts 24°
2026-05-06 15:52 39.49512 -0.47615 31946 ft 520 kts 25°
2026-05-06 15:53 39.55698 -0.42713 31943 ft 522 kts 29°
2026-05-06 15:53 39.61743 -0.37469 31944 ft 523 kts 30°
2026-05-06 15:54 39.67803 -0.32237 31940 ft 523 kts 29°
2026-05-06 15:54 39.73913 -0.27130 31939 ft 522 kts 28°
2026-05-06 15:55 39.80039 -0.22052 31936 ft 522 kts 28°
2026-05-06 15:55 39.86160 -0.16940 31934 ft 523 kts 28°
2026-05-06 15:56 39.92263 -0.11798 31939 ft 523 kts 28°
2026-05-06 15:56 39.98412 -0.06609 31944 ft 523 kts 28°
2026-05-06 15:57 40.04512 -0.01452 31954 ft 523 kts 28°
2026-05-06 15:57 40.10613 0.03719 31963 ft 522 kts 28°
2026-05-06 15:58 40.16706 0.08880 31969 ft 522 kts 28°
2026-05-06 15:58 40.22903 0.13761 31970 ft 516 kts 20°
2026-05-06 15:59 40.29605 0.16755 31974 ft 507 kts
2026-05-06 15:59 40.33002 0.18015 31681 ft 509 kts 10°
2026-05-06 15:59 40.36403 0.19283 31254 ft 507 kts 10°
2026-05-06 16:00 40.39798 0.20553 30742 ft 510 kts 10°
2026-05-06 16:00 40.43237 0.21842 29550 ft 516 kts
2026-05-06 16:00 40.46670 0.23142 29032 ft 510 kts 12°
2026-05-06 16:00 40.49980 0.24862 29120 ft 518 kts 22°
2026-05-06 16:01 40.53055 0.27410 28042 ft 529 kts 37°
2026-05-06 16:01 40.55581 0.30926 27301 ft 531 kts 52°
2026-05-06 16:01 40.57467 0.35086 26774 ft 531 kts 65°
2026-05-06 16:01 40.58750 0.39646 26166 ft 532 kts 72°
2026-05-06 16:02 40.59879 0.44283 25541 ft 533 kts 72°
2026-05-06 16:02 40.60988 0.48933 24932 ft 533 kts 73°
2026-05-06 16:02 40.62083 0.53598 24334 ft 534 kts 73°
2026-05-06 16:02 40.63176 0.58283 23748 ft 535 kts 73°
2026-05-06 16:03 40.64275 0.63006 23094 ft 531 kts 73°
2026-05-06 16:03 40.65352 0.67628 22407 ft 525 kts 73°
2026-05-06 16:03 40.66417 0.72189 21753 ft 518 kts 73°
2026-05-06 16:03 40.67467 0.76695 21123 ft 510 kts 73°
2026-05-06 16:04 40.68494 0.81120 20491 ft 500 kts 73°
2026-05-06 16:04 40.69498 0.85458 19867 ft 491 kts 73°
2026-05-06 16:04 40.70487 0.89727 19257 ft 483 kts 72°
2026-05-06 16:04 40.71461 0.93927 18670 ft 476 kts 72°
2026-05-06 16:05 40.72423 0.98083 18055 ft 470 kts 72°
2026-05-06 16:05 40.73369 1.02180 17381 ft 464 kts 72°
2026-05-06 16:05 40.74301 1.06226 16719 ft 458 kts 72°
2026-05-06 16:05 40.75219 1.10219 16081 ft 452 kts 72°
2026-05-06 16:06 40.76123 1.14162 15451 ft 446 kts 72°
2026-05-06 16:06 40.77013 1.18052 14833 ft 440 kts 72°
2026-05-06 16:06 40.77890 1.21896 14220 ft 434 kts 72°
2026-05-06 16:06 40.78755 1.25680 13622 ft 428 kts 72°
2026-05-06 16:07 40.79606 1.29418 12953 ft 422 kts 72°
2026-05-06 16:07 40.80428 1.33050 12293 ft 403 kts 72°
2026-05-06 16:07 40.81332 1.36446 11657 ft 382 kts 63°
2026-05-06 16:07 40.82540 1.39481 11032 ft 367 kts 60°
2026-05-06 16:08 40.83723 1.42433 10419 ft 361 kts 60°
2026-05-06 16:08 40.84889 1.45344 9814 ft 356 kts 60°
2026-05-06 16:08 40.86033 1.48201 9154 ft 351 kts 60°
2026-05-06 16:08 40.87181 1.51055 8507 ft 352 kts 60°
2026-05-06 16:09 40.88330 1.53906 7864 ft 352 kts 60°
2026-05-06 16:09 40.89478 1.56762 7246 ft 351 kts 60°
2026-05-06 16:09 40.90617 1.59605 6818 ft 345 kts 60°
2026-05-06 16:09 40.91720 1.62364 6769 ft 338 kts 60°
2026-05-06 16:10 40.92817 1.65111 6725 ft 339 kts 60°
2026-05-06 16:10 40.93929 1.67903 6679 ft 338 kts 60°
2026-05-06 16:10 40.95025 1.70653 6681 ft 338 kts 60°
2026-05-06 16:10 40.96119 1.73402 6663 ft 338 kts 60°
2026-05-06 16:11 40.97215 1.76156 6588 ft 338 kts 60°
2026-05-06 16:11 40.98310 1.78906 6505 ft 337 kts 60°
2026-05-06 16:11 40.99404 1.81655 6442 ft 337 kts 60°
2026-05-06 16:11 41.00476 1.84354 6367 ft 323 kts 60°
2026-05-06 16:12 41.01505 1.86952 6304 ft 315 kts 60°
2026-05-06 16:12 41.02504 1.89477 6222 ft 306 kts 60°
2026-05-06 16:12 41.03485 1.91959 6145 ft 304 kts 60°
2026-05-06 16:12 41.04465 1.94432 6064 ft 303 kts 60°
2026-05-06 16:13 41.05444 1.96902 5994 ft 303 kts 60°
2026-05-06 16:13 41.06423 1.99372 5918 ft 302 kts 60°
2026-05-06 16:13 41.07397 2.01838 5842 ft 302 kts 60°
2026-05-06 16:13 41.08369 2.04302 5768 ft 301 kts 60°
2026-05-06 16:14 41.09339 2.06765 5691 ft 301 kts 60°
2026-05-06 16:14 41.10308 2.09223 5616 ft 301 kts 60°
2026-05-06 16:14 41.11266 2.11655 5539 ft 291 kts 61°
2026-05-06 16:14 41.12181 2.13982 5461 ft 281 kts 60°
2026-05-06 16:15 41.12777 2.15499 5416 ft 279 kts 61°
2026-05-06 16:15 41.13658 2.17746 5340 ft 267 kts 60°
2026-05-06 16:15 41.14492 2.19881 5234 ft 254 kts 60°
2026-05-06 16:15 41.15286 2.21912 5122 ft 242 kts 60°
2026-05-06 16:16 41.16052 2.23873 5029 ft 231 kts 60°
2026-05-06 16:16 41.16777 2.25733 4928 ft 227 kts 61°
2026-05-06 16:16 41.17512 2.27611 4834 ft 228 kts 60°
2026-05-06 16:16 41.18337 2.29398 4736 ft 230 kts 54°
2026-05-06 16:17 41.19221 2.31182 4635 ft 232 kts 54°
2026-05-06 16:17 41.20101 2.32971 4529 ft 227 kts 55°
2026-05-06 16:17 41.20954 2.34710 4417 ft 223 kts 55°
2026-05-06 16:17 41.21798 2.36429 4312 ft 222 kts 55°
2026-05-06 16:18 41.22641 2.38146 4218 ft 222 kts 55°
2026-05-06 16:18 41.23504 2.39845 4119 ft 221 kts 47°
2026-05-06 16:18 41.24705 2.41062 4016 ft 217 kts 19°
2026-05-06 16:18 41.26159 2.41385 3919 ft 211 kts 351°
2026-05-06 16:19 41.27524 2.40776 3825 ft 209 kts 327°
2026-05-06 16:19 41.28837 2.39737 3720 ft 226 kts 327°
2026-05-06 16:19 41.30202 2.38671 3622 ft 229 kts 327°
2026-05-06 16:19 41.31579 2.37602 3524 ft 229 kts 327°
2026-05-06 16:20 41.32950 2.36540 3427 ft 228 kts 327°
2026-05-06 16:20 41.34303 2.35491 3319 ft 221 kts 327°
2026-05-06 16:20 41.35532 2.34366 3214 ft 209 kts 313°
2026-05-06 16:20 41.36387 2.32880 3126 ft 196 kts 295°
2026-05-06 16:21 41.36820 2.31254 3051 ft 178 kts 279°
2026-05-06 16:21 41.36882 2.29648 2959 ft 172 kts 263°
2026-05-06 16:21 41.36610 2.28109 2854 ft 170 kts 248°
2026-05-06 16:21 41.36126 2.26679 2674 ft 168 kts 245°
2026-05-06 16:22 41.35654 2.25285 2487 ft 161 kts 244°
2026-05-06 16:22 41.35198 2.23945 2268 ft 158 kts 243°
2026-05-06 16:22 41.34745 2.22611 2051 ft 158 kts 244°
2026-05-06 16:22 41.34289 2.21273 1838 ft 158 kts 244°
2026-05-06 16:23 41.33837 2.19946 1631 ft 158 kts 243°
2026-05-06 16:23 41.33378 2.18599 1415 ft 158 kts 244°
2026-05-06 16:23 41.32924 2.17266 1203 ft 156 kts 243°
2026-05-06 16:23 41.32494 2.16004 978 ft 145 kts 244°
2026-05-06 16:24 41.32088 2.14813 794 ft 140 kts 242°
2026-05-06 16:24 41.31687 2.13634 584 ft 139 kts 243°
2026-05-06 16:24 41.31277 2.12489 390 ft 135 kts 240°
2026-05-06 16:24 41.30898 2.11336 225 ft 138 kts 243°
2026-05-06 16:25 41.30509 2.10184 48 ft 135 kts 242°
2026-05-06 16:25 41.30138 2.09150 17 ft 105 kts 243°
2026-05-06 16:25 41.29910 2.08479 24 ft 53 kts 244°
2026-05-06 16:25 41.29730 2.08217 18 ft 20 kts 212°
2026-05-06 16:26 41.29633 2.08164 17 ft 14 kts 226°
2026-05-06 16:26 41.29587 2.08040 17 ft 16 kts 246°
2026-05-06 16:26 41.29570 2.07991 18 ft 0 kts 246°
2026-05-06 16:27 41.29562 2.07966 18 ft 5 kts 245°
2026-05-06 16:27 41.29544 2.07939 17 ft 3 kts 210°
2026-05-06 16:27 41.29516 2.07933 16 ft 5 kts 168°
2026-05-06 16:27 41.29477 2.07961 15 ft 7 kts 152°
2026-05-06 16:28 41.29433 2.07990 16 ft 7 kts 155°
2026-05-06 16:28 41.29389 2.08016 17 ft 7 kts 155°
2026-05-06 16:28 41.29365 2.08031 18 ft 2 kts 154°
2026-05-06 16:28 41.29362 2.08033 18 ft 0 kts 154°
2026-05-06 16:29 41.29361 2.08034 18 ft 1 kts 154°
2026-05-06 16:29 41.29326 2.08056 20 ft 6 kts 155°
2026-05-06 16:29 41.29284 2.08055 19 ft 7 kts 217°
2026-05-06 16:29 41.29254 2.07990 19 ft 9 kts 244°
2026-05-06 16:30 41.29228 2.07981 19 ft 5 kts 164°
2026-05-06 16:30 41.29204 2.07995 21 ft 5 kts 153°
2026-05-06 16:30 41.29179 2.08010 19 ft 2 kts 156°
2026-05-06 16:30 41.29173 2.08013 19 ft 0 kts 156°